Flag for U.S.A. Weather past 2 weeks in Cedar Rapids, Iowa, U.S.A.

Now
-12 °F

Passing clouds.


Feels Like: -24 °F
Forecast: -8 / 13 °F
Wind: 5 mph from Northwest

Location: Cedar Rapids Municipal Airport

Current Time: Feb 27, 2015 at 9:53:43 AM

Latest Report: Feb 27, 2015 at 8:52 AM


Visibility: 8 mi

Pressure: 30.70 "Hg

Humidity: 81%

Dew point: -16 °F

Location of Cedar RapidsLocation

Historic Weather in Cedar Rapids — Graph

°F

Cedar Rapids temperature yesterday

Maximum temperature yesterday: 12 °F (at 12:52 AM)
Minimum temperature yesterday: -11 °F (at 11:52 PM)
Average temperature yesterday: 3 °F

Past Weeks' High & Low Weather Summary

 TemperatureHumidityPressure
High36 °F (Feb 24, 12:52 PM)96% (Feb 21, 3:52 AM)30.84 "Hg (Feb 21, 3:52 AM)
Low-18 °F (Feb 27, 4:52 AM)48% (Feb 23, 3:52 PM)29.79 "Hg (Feb 24, 1:52 PM)
Average10 °F70%30.27 "Hg
* Reported Feb 12 7:52 AM — Feb 27 7:52 AM, Cedar Rapids, Weather by CustomWeather, © 2015

Note: Actual official high and low records may vary slightly from our data, if they occured in-between our weather recording intervals... More about our weather records

Advertising

Cedar Rapids weather history for previous 24 hours

 ConditionsComfort  
Time TempWeatherWind HumidityBarometerVisibility
7:52 AM
Fri, Feb 27
-18 °FIce fog.3 mph90%30.68 "Hg10 mi
6:56 AM-17 °FScattered clouds.8 mph86%30.56 "Hg9 mi
6:52 AM-18 °FSunny.6 mph90%30.65 "Hg9 mi
5:52 AM-18 °FClear.No wind86%30.63 "Hg10 mi
4:52 AM-18 °FClear.7 mph86%30.62 "Hg10 mi
3:52 AM-16 °FClear.8 mph87%30.60 "Hg10 mi
2:52 AM-13 °FClear.8 mph82%30.60 "Hg10 mi
1:52 AM-12 °FClear.7 mph86%30.59 "Hg10 mi
12:52 AMN/AClear.9 mphN/A30.58 "Hg10 mi
11:52 PM
Thu, Feb 26
-11 °FClear.6 mph82%30.57 "Hg10 mi
10:52 PM-8 °FClear.9 mph78%30.57 "Hg10 mi
9:52 PM-8 °FClear.8 mph78%30.57 "Hg10 mi
8:52 PM-4 °FClear.12 mphN/A30.56 "Hg10 mi
7:52 PM-3 °FClear.14 mph75%30.54 "Hg10 mi
6:52 PM-1 °FClear.13 mph71%30.52 "Hg10 mi
5:52 PM2 °FSunny.13 mph72%30.49 "Hg10 mi
4:52 PM6 °FSunny.15 mph63%30.47 "Hg10 mi
3:52 PM7 °FSunny.18 mph66%30.45 "Hg10 mi
2:52 PM8 °FSunny.20 mph66%30.43 "Hg10 mi
1:52 PM9 °FSunny.18 mph66%30.42 "Hg10 mi
12:52 PM7 °FSunny.17 mph66%30.41 "Hg10 mi
11:52 AM7 °FSunny.13 mph63%30.42 "Hg10 mi
10:52 AM6 °FSunny.12 mph63%30.41 "Hg10 mi
9:52 AM4 °FSunny.15 mph66%30.39 "Hg10 mi
Weather by CustomWeather, © 2015

See weather overviewHow to use our weather pages